Meteo orario 3 internacional

Oggi, 19 Giugno, Sabato

Tempo Temperatura Precipitazioni Vento Pressione Umidità
00:00 +29°C° 0 mm 7 m/s 746 mm Hg 35%
01:00 +28°C° 0 mm 9 m/s 746 mm Hg 38%
02:00 +27°C° 0 mm 9 m/s 747 mm Hg 40%
03:00 +26°C° 0 mm 9 m/s 747 mm Hg 43%
04:00 +24°C° 0 mm 9 m/s 748 mm Hg 45%
05:00 +24°C° 0 mm 9 m/s 749 mm Hg 42%
06:00 +24°C° 0 mm 9 m/s 749 mm Hg 40%
07:00 +26°C° 0 mm 9 m/s 750 mm Hg 37%
08:00 +26°C° 0 mm 9 m/s 750 mm Hg 33%
09:00 +27°C° 0 mm 9 m/s 751 mm Hg 29%
10:00 +28°C° 0 mm 9 m/s 751 mm Hg 24%
11:00 +29°C° 0 mm 9 m/s 751 mm Hg 21%
12:00 +29°C° 0 mm 9 m/s 751 mm Hg 18%
13:00 +31°C° 0 mm 9 m/s 751 mm Hg 15%
14:00 +31°C° 0 mm 9 m/s 751 mm Hg 15%
15:00 +31°C° 0 mm 9 m/s 751 mm Hg 14%
16:00 +31°C° 0 mm 9 m/s 751 mm Hg 14%
17:00 +29°C° 0 mm 9 m/s 752 mm Hg 15%
18:00 +28°C° 0 mm 8 m/s 752 mm Hg 17%
19:00 +27°C° 0 mm 8 m/s 752 mm Hg 18%
20:00 +26°C° 0 mm 8 m/s 753 mm Hg 18%
21:00 +24°C° 0 mm 8 m/s 753 mm Hg 19%
22:00 +23°C° 0 mm 7 m/s 754 mm Hg 19%
23:00 +22°C° 0 mm 7 m/s 754 mm Hg 20%

Domani, 20 Giugno, Domenica

Tempo Temperatura Precipitazioni Vento Pressione Umidità
00:00 +22°C° 0 mm 6 m/s 754 mm Hg 21%
01:00 +21°C° 0 mm 5 m/s 754 mm Hg 22%
02:00 +20°C° 0 mm 5 m/s 754 mm Hg 23%
03:00 +19°C° 0 mm 4 m/s 754 mm Hg 25%
04:00 +19°C° 0 mm 4 m/s 755 mm Hg 26%
05:00 +20°C° 0 mm 4 m/s 755 mm Hg 24%
06:00 +22°C° 0 mm 4 m/s 755 mm Hg 22%
07:00 +23°C° 0 mm 4 m/s 755 mm Hg 20%
08:00 +25°C° 0 mm 4 m/s 755 mm Hg 19%
09:00 +26°C° 0 mm 4 m/s 755 mm Hg 19%
10:00 +27°C° 0 mm 4 m/s 755 mm Hg 19%
11:00 +28°C° 0 mm 4 m/s 755 mm Hg 19%
12:00 +29°C° 0 mm 4 m/s 754 mm Hg 19%
13:00 +30°C° 0 mm 4 m/s 754 mm Hg 19%
14:00 +32°C° 0 mm 4 m/s 753 mm Hg 19%
15:00 +32°C° 0 mm 5 m/s 753 mm Hg 19%
16:00 +32°C° 0 mm 5 m/s 753 mm Hg 19%
17:00 +32°C° 0 mm 4 m/s 752 mm Hg 20%
18:00 +30°C° 0 mm 3 m/s 752 mm Hg 21%
19:00 +30°C° 0 mm 3 m/s 752 mm Hg 23%
20:00 +29°C° 0 mm 3 m/s 752 mm Hg 23%
21:00 +28°C° 0 mm 4 m/s 751 mm Hg 24%
22:00 +27°C° 0 mm 4 m/s 751 mm Hg 24%
23:00 +27°C° 0 mm 4 m/s 751 mm Hg 26%

Dopodomani, 21 Giugno, Lunedi

Tempo Temperatura Precipitazioni Vento Pressione Umidità
00:00 +26°C° 0 mm 4 m/s 751 mm Hg 28%
01:00 +25°C° 0 mm 5 m/s 751 mm Hg 31%
02:00 +25°C° 0 mm 5 m/s 751 mm Hg 32%
03:00 +23°C° 0 mm 5 m/s 750 mm Hg 34%
04:00 +23°C° 0 mm 5 m/s 750 mm Hg 36%
05:00 +26°C° 0 mm 5 m/s 750 mm Hg 36%
06:00 +27°C° 0 mm 5 m/s 751 mm Hg 36%
07:00 +29°C° 0 mm 5 m/s 751 mm Hg 37%
08:00 +30°C° 0 mm 6 m/s 751 mm Hg 34%
09:00 +32°C° 0 mm 7 m/s 751 mm Hg 31%
10:00 +34°C° 0 mm 7 m/s 751 mm Hg 28%
11:00 +34°C° 0 mm 8 m/s 751 mm Hg 24%
12:00 +34°C° 0 mm 8 m/s 751 mm Hg 20%
13:00 +34°C° 0 mm 9 m/s 751 mm Hg 16%
14:00 +34°C° 0 mm 9 m/s 751 mm Hg 15%
15:00 +33°C° 0 mm 9 m/s 751 mm Hg 13%
16:00 +33°C° 0 mm 9 m/s 752 mm Hg 11%
17:00 +32°C° 0 mm 8 m/s 752 mm Hg 12%
18:00 +29°C° 0 mm 8 m/s 752 mm Hg 13%
19:00 +28°C° 0 mm 7 m/s 753 mm Hg 15%
20:00 +27°C° 0 mm 6 m/s 753 mm Hg 17%
21:00 +26°C° 0 mm 6 m/s 753 mm Hg 20%
22:00 +24°C° 0 mm 6 m/s 754 mm Hg 22%
23:00 +23°C° 0 mm 5 m/s 754 mm Hg 24%

22 Giugno, Martedi

Tempo Temperatura Precipitazioni Vento Pressione Umidità
00:00 +22°C° 0 mm 5 m/s 754 mm Hg 26%
01:00 +22°C° 0 mm 4 m/s 754 mm Hg 28%
02:00 +21°C° 0 mm 4 m/s 754 mm Hg 30%
03:00 +20°C° 0 mm 4 m/s 754 mm Hg 33%
04:00 +19°C° 0 mm 4 m/s 755 mm Hg 35%
05:00 +20°C° 0 mm 5 m/s 755 mm Hg 35%
06:00 +21°C° 0 mm 5 m/s 755 mm Hg 34%
07:00 +22°C° 0 mm 6 m/s 756 mm Hg 34%
08:00 +23°C° 0 mm 6 m/s 756 mm Hg 32%
09:00 +24°C° 0 mm 6 m/s 756 mm Hg 30%
10:00 +26°C° 0 mm 6 m/s 756 mm Hg 29%
11:00 +27°C° 0 mm 6 m/s 756 mm Hg 27%
12:00 +28°C° 0 mm 6 m/s 755 mm Hg 24%
13:00 +29°C° 0 mm 6 m/s 755 mm Hg 22%
14:00 +29°C° 0 mm 6 m/s 755 mm Hg 21%
15:00 +29°C° 0 mm 5 m/s 755 mm Hg 20%
16:00 +30°C° 0 mm 5 m/s 754 mm Hg 19%
17:00 +29°C° 0 mm 5 m/s 754 mm Hg 20%
18:00 +29°C° 0 mm 5 m/s 754 mm Hg 21%
19:00 +28°C° 0 mm 4 m/s 754 mm Hg 22%
20:00 +27°C° 0 mm 4 m/s 754 mm Hg 24%
21:00 +26°C° 0 mm 4 m/s 754 mm Hg 25%
22:00 +25°C° 0 mm 3 m/s 754 mm Hg 27%
23:00 +24°C° 0 mm 3 m/s 754 mm Hg 27%

23 Giugno, Mercoledi

Tempo Temperatura Precipitazioni Vento Pressione Umidità
00:00 +24°C° 0 mm 3 m/s 754 mm Hg 28%
01:00 +24°C° 0 mm 3 m/s 754 mm Hg 29%
02:00 +22°C° 0 mm 3 m/s 754 mm Hg 30%
03:00 +23°C° 0 mm 2 m/s 753 mm Hg 31%
04:00 +21°C° 0 mm 2 m/s 753 mm Hg 32%
05:00 +24°C° 0 mm 2 m/s 753 mm Hg 29%
06:00 +26°C° 0 mm 3 m/s 754 mm Hg 26%
07:00 +28°C° 0 mm 3 m/s 754 mm Hg 23%
08:00 +29°C° 0 mm 3 m/s 753 mm Hg 22%
09:00 +32°C° 0 mm 4 m/s 753 mm Hg 20%
10:00 +33°C° 0 mm 4 m/s 753 mm Hg 19%
11:00 +34°C° 0 mm 4 m/s 752 mm Hg 19%
12:00 +35°C° 0 mm 5 m/s 752 mm Hg 19%
13:00 +36°C° 0 mm 5 m/s 752 mm Hg 19%
14:00 +37°C° 0 mm 5 m/s 751 mm Hg 19%
15:00 +37°C° 0 mm 5 m/s 750 mm Hg 20%
16:00 +39°C° 0 mm 5 m/s 750 mm Hg 20%
17:00 +37°C° 0 mm 5 m/s 750 mm Hg 22%
18:00 +36°C° 0 mm 5 m/s 750 mm Hg 23%
19:00 +35°C° 0 mm 5 m/s 750 mm Hg 24%
20:00 +34°C° 0 mm 5 m/s 750 mm Hg 25%
21:00 +33°C° 0 mm 5 m/s 750 mm Hg 26%
22:00 +32°C° 0 mm 6 m/s 750 mm Hg 28%
23:00 +29°C° 0 mm 5 m/s 751 mm Hg 31%

24 Giugno, Giovedi

Tempo Temperatura Precipitazioni Vento Pressione Umidità
00:00 +28°C° 0 mm 5 m/s 751 mm Hg 34%
01:00 +27°C° 0 mm 4 m/s 751 mm Hg 37%
02:00 +26°C° 0 mm 5 m/s 751 mm Hg 37%
03:00 +26°C° 0 mm 5 m/s 751 mm Hg 37%
04:00 +24°C° 0 mm 6 m/s 752 mm Hg 38%
05:00 +24°C° 0 mm 6 m/s 752 mm Hg 35%
06:00 +24°C° 0 mm 7 m/s 752 mm Hg 33%
07:00 +24°C° 0 mm 7 m/s 753 mm Hg 31%
08:00 +26°C° 0 mm 7 m/s 753 mm Hg 28%
09:00 +27°C° 0 mm 7 m/s 753 mm Hg 25%
10:00 +28°C° 0 mm 7 m/s 753 mm Hg 22%
11:00 +29°C° 0 mm 7 m/s 753 mm Hg 20%
12:00 +29°C° 0 mm 7 m/s 753 mm Hg 18%
13:00 +30°C° 0 mm 7 m/s 753 mm Hg 15%
14:00 +30°C° 0 mm 7 m/s 753 mm Hg 15%
15:00 +30°C° 0 mm 7 m/s 753 mm Hg 14%
16:00 +30°C° 0 mm 7 m/s 753 mm Hg 14%
17:00 +29°C° 0 mm 7 m/s 753 mm Hg 15%
18:00 +28°C° 0 mm 6 m/s 753 mm Hg 15%
19:00 +27°C° 0 mm 6 m/s 753 mm Hg 16%
20:00 +26°C° 0 mm 5 m/s 754 mm Hg 18%
21:00 +25°C° 0 mm 5 m/s 754 mm Hg 20%
22:00 +23°C° 0 mm 4 m/s 754 mm Hg 22%
23:00 +22°C° 0 mm 4 m/s 754 mm Hg 24%
Mostrare altro

Abbiamo bisogno del tuo consenso

Meteoprog e i nostri fornitori di servizi possono memorizzare e accedere a dati personali come cookie, identificatori di dispositivi o altre tecnologie simili sul tuo dispositivo e possono elaborare tali dati per personalizzare i contenuti e gli annunci, nonché fornire funzionalità dei social media e analizzarne il traffico.

  • Archiviare e/o accedere alle informazioni sul tuo dispositivo

    Cookie, identificatori di dispositivi o altre informazioni possono essere memorizzati o resi accessibili sul tuo dispositivo per le finalità sopra indicate.

  • Annunci e contenuti personalizzati, misurazione di annunci e contenuti, approfondimenti sul pubblico e sviluppo di prodotti

    Gli annunci e i contenuti possono essere personalizzati in base a un profilo. È possibile aggiungere più dati per personalizzare meglio annunci e contenuti. È possibile misurare il rendimento degli annunci e dei contenuti. È possibile ricavare informazioni sul pubblico che ha visto gli annunci e i contenuti. Tali dati possono essere utilizzati per sviluppare o migliorare l'esperienza, i sistemi e il software dell'utente.

Cliccando su “Accetto”, acconsenti all'uso di cookie, identificatori di dispositivo, web beacon o altre tecnologie simili. Puoi modificare le impostazioni nel browser del tuo dispositivo.

Per determinati scopi, è possibile fare affidamento su interessi legali, piuttosto che sul consenso. Puoi approfondire questo argomento consultando la nostra Informativa sulla privacy e sui cookie.